Data No,UTC Date,UTC Time,Latitude,Longitude,Course(deg),Temp(degC),Sal(psu)
512,2023/4/12,8:31,42-36.91N,141-37.05E,211,6.457,30.418
513,2023/4/12,8:32,42-36.68N,141-36.86E,210,6.276,30.452
514,2023/4/12,8:33,42-36.41N,141-36.74E,191,6.198,30.5737
515,2023/4/12,8:34,42-36.12N,141-36.75E,177,6.146,30.6782
516,2023/4/12,8:35,42-35.84N,141-36.76E,177,6.099,30.7259
517,2023/4/12,8:36,42-35.55N,141-36.79E,176,6.03,30.7859
518,2023/4/12,8:37,42-35.26N,141-36.81E,176,6.014,30.8648
519,2023/4/12,8:38,42-34.95N,141-36.84E,176,6.065,30.9124
520,2023/4/12,8:39,42-34.65N,141-36.87E,175,6.155,30.9557
521,2023/4/12,8:40,42-34.39N,141-36.90E,175,6.16,30.9155
522,2023/4/12,8:41,42-34.08N,141-36.94E,175,6.078,30.8521
523,2023/4/12,8:42,42-33.77N,141-36.98E,174,6.014,30.9125
524,2023/4/12,8:43,42-33.47N,141-37.01E,175,5.717,31.0845
525,2023/4/12,8:44,42-33.15N,141-37.04E,175,5.213,31.3956
526,2023/4/12,8:45,42-32.83N,141-37.07E,175,4.83,31.7099
527,2023/4/12,8:46,42-32.49N,141-37.11E,175,4.696,31.9605
528,2023/4/12,8:47,42-32.14N,141-37.15E,175,4.673,32.1049
529,2023/4/12,8:48,42-31.82N,141-37.18E,175,4.683,32.1976
530,2023/4/12,8:49,42-31.54N,141-37.22E,175,4.669,32.2322
531,2023/4/12,8:50,42-31.20N,141-37.25E,175,4.698,32.2447
532,2023/4/12,8:51,42-30.88N,141-37.29E,175,4.728,32.2476
533,2023/4/12,8:52,42-30.54N,141-37.33E,175,4.748,32.2479
534,2023/4/12,8:53,42-30.20N,141-37.36E,175,4.795,32.2458
535,2023/4/12,8:54,42-29.88N,141-37.39E,175,4.831,32.2429
536,2023/4/12,8:55,42-29.50N,141-37.43E,175,4.83,32.2354
537,2023/4/12,8:56,42-29.16N,141-37.47E,175,4.858,32.2304
538,2023/4/12,8:57,42-28.86N,141-37.50E,175,4.907,32.23
539,2023/4/12,8:58,42-28.52N,141-37.53E,175,4.921,32.2262
540,2023/4/12,8:59,42-28.19N,141-37.56E,175,4.899,32.2205
541,2023/4/12,9:00,42-27.83N,141-37.60E,175,4.845,32.2233
542,2023/4/12,9:01,42-27.49N,141-37.63E,176,4.817,32.2283
543,2023/4/12,9:02,42-27.15N,141-37.66E,176,4.822,32.2353
544,2023/4/12,9:03,42-26.82N,141-37.68E,176,4.88,32.2413
545,2023/4/12,9:04,42-26.48N,141-37.72E,175,4.935,32.2297
546,2023/4/12,9:05,42-26.12N,141-37.75E,175,4.987,32.2154
547,2023/4/12,9:06,42-25.74N,141-37.79E,175,5.053,32.2072
548,2023/4/12,9:07,42-25.37N,141-37.82E,176,5.087,32.207
549,2023/4/12,9:08,42-25.06N,141-37.85E,176,5.064,32.211
550,2023/4/12,9:09,42-24.73N,141-37.88E,176,5.065,32.2115
551,2023/4/12,9:10,42-24.35N,141-37.91E,176,5.124,32.2139
552,2023/4/12,9:11,42-23.97N,141-37.94E,176,5.169,32.2119
553,2023/4/12,9:12,42-23.61N,141-37.97E,176,5.207,32.211
554,2023/4/12,9:13,42-23.25N,141-38.01E,176,5.181,32.2127
555,2023/4/12,9:14,42-22.91N,141-38.04E,176,5.085,32.2036
556,2023/4/12,9:15,42-22.54N,141-38.07E,176,4.956,32.1972
557,2023/4/12,9:16,42-22.18N,141-38.10E,176,4.881,32.1955
558,2023/4/12,9:17,42-21.81N,141-38.13E,176,4.866,32.2175
559,2023/4/12,9:18,42-21.46N,141-38.16E,176,4.901,32.2614
560,2023/4/12,9:19,42-21.09N,141-38.19E,176,4.991,32.2557
561,2023/4/12,9:20,42-20.72N,141-38.22E,176,5.08,32.2288
562,2023/4/12,9:21,42-20.36N,141-38.25E,176,5.106,32.1827
563,2023/4/12,9:22,42-19.99N,141-38.28E,176,5.099,32.1581
564,2023/4/12,9:23,42-19.63N,141-38.31E,176,5.137,32.1475
565,2023/4/12,9:24,42-19.29N,141-38.34E,176,5.094,32.1414
566,2023/4/12,9:25,42-18.94N,141-38.37E,176,5.051,32.1281
567,2023/4/12,9:26,42-18.58N,141-38.39E,176,5.027,32.1331
568,2023/4/12,9:27,42-18.20N,141-38.42E,176,5.047,32.1669
569,2023/4/12,9:28,42-17.83N,141-38.45E,176,5.104,32.1809
570,2023/4/12,9:29,42-17.44N,141-38.48E,176,5.162,32.1776
571,2023/4/12,9:30,42-17.06N,141-38.50E,177,5.168,32.1471
572,2023/4/12,9:31,42-16.69N,141-38.51E,179,5.119,32.1174
573,2023/4/12,9:32,42-16.30N,141-38.50E,181,5.033,32.106
574,2023/4/12,9:33,42-15.93N,141-38.49E,181,5.125,32.129
575,2023/4/12,9:34,42-15.55N,141-38.47E,181,5.368,32.1988
576,2023/4/12,9:35,42-15.17N,141-38.45E,181,5.626,32.252
577,2023/4/12,9:36,42-14.80N,141-38.43E,182,5.459,32.2986
578,2023/4/12,9:37,42-14.37N,141-38.41E,182,5.346,32.3458
579,2023/4/12,9:38,42-13.98N,141-38.39E,182,5.186,32.4003
580,2023/4/12,9:39,42-13.62N,141-38.37E,182,5.069,32.4305
581,2023/4/12,9:40,42-13.24N,141-38.34E,182,5.041,32.4464
582,2023/4/12,9:41,42-12.85N,141-38.31E,182,5.08,32.4626
583,2023/4/12,9:42,42-12.48N,141-38.29E,182,5.122,32.4763
584,2023/4/12,9:43,42-12.12N,141-38.26E,182,5.165,32.4882
585,2023/4/12,9:44,42-11.74N,141-38.24E,182,5.213,32.4976
586,2023/4/12,9:45,42-11.37N,141-38.21E,182,5.232,32.5021
587,2023/4/12,9:46,42-11.01N,141-38.19E,182,5.266,32.5042
588,2023/4/12,9:47,42-10.63N,141-38.16E,182,5.304,32.5
589,2023/4/12,9:48,42-10.27N,141-38.13E,183,5.317,32.4965
590,2023/4/12,9:49,42-09.90N,141-38.10E,182,5.318,32.4931
591,2023/4/12,9:50,42-09.52N,141-38.07E,183,5.32,32.4957
592,2023/4/12,9:51,42-09.16N,141-38.05E,183,5.366,32.4973
593,2023/4/12,9:52,42-08.77N,141-38.02E,182,5.467,32.5049
594,2023/4/12,9:53,42-08.42N,141-37.99E,183,5.551,32.5159
595,2023/4/12,9:54,42-08.11N,141-37.97E,183,5.597,32.5527
596,2023/4/12,9:55,42-07.73N,141-37.94E,183,5.713,32.5984
597,2023/4/12,9:56,42-07.37N,141-37.91E,183,5.735,32.6222
598,2023/4/12,9:57,42-07.00N,141-37.88E,183,5.8,32.6246
599,2023/4/12,9:58,42-06.63N,141-37.85E,183,5.869,32.6212
600,2023/4/12,9:59,42-06.27N,141-37.82E,183,5.915,32.6365
601,2023/4/12,10:00,42-05.89N,141-37.79E,183,5.957,32.647
602,2023/4/12,10:01,42-05.53N,141-37.76E,182,5.968,32.6586
603,2023/4/12,10:02,42-05.16N,141-37.74E,182,5.993,32.6692
604,2023/4/12,10:03,42-04.80N,141-37.71E,183,6.025,32.6785
605,2023/4/12,10:04,42-04.43N,141-37.68E,183,6.172,32.6981
606,2023/4/12,10:05,42-04.05N,141-37.65E,183,6.287,32.7214
607,2023/4/12,10:06,42-03.67N,141-37.63E,182,6.357,32.7722
608,2023/4/12,10:07,42-03.31N,141-37.60E,182,6.376,32.8059
609,2023/4/12,10:08,42-02.94N,141-37.58E,182,6.393,32.8121
610,2023/4/12,10:09,42-02.57N,141-37.55E,182,6.489,32.8009
611,2023/4/12,10:10,42-02.19N,141-37.53E,182,6.625,32.797
612,2023/4/12,10:11,42-01.81N,141-37.51E,182,6.617,32.8232
613,2023/4/12,10:12,42-01.45N,141-37.49E,182,6.609,32.8229
614,2023/4/12,10:13,42-01.09N,141-37.47E,182,6.638,32.8044
615,2023/4/12,10:14,42-00.71N,141-37.44E,182,6.621,32.7982
616,2023/4/12,10:15,42-00.34N,141-37.42E,182,6.639,32.7946
617,2023/4/12,10:16,41-59.98N,141-37.40E,182,6.651,32.7919
618,2023/4/12,10:17,41-59.61N,141-37.38E,182,6.655,32.7912
619,2023/4/12,10:18,41-59.24N,141-37.35E,182,6.645,32.798
620,2023/4/12,10:19,41-58.87N,141-37.33E,182,6.619,32.8087
621,2023/4/12,10:20,41-58.49N,141-37.31E,181,6.606,32.8142
622,2023/4/12,10:21,41-58.13N,141-37.30E,182,6.614,32.8422
623,2023/4/12,10:22,41-57.75N,141-37.27E,182,6.645,32.8642
624,2023/4/12,10:23,41-57.38N,141-37.27E,179,6.675,32.8774
625,2023/4/12,10:24,41-57.02N,141-37.29E,177,6.686,32.8874
626,2023/4/12,10:25,41-56.64N,141-37.31E,177,6.6,32.9113
627,2023/4/12,10:26,41-56.26N,141-37.33E,177,6.512,32.9283
628,2023/4/12,10:27,41-55.90N,141-37.35E,177,6.385,32.9296
629,2023/4/12,10:28,41-55.53N,141-37.36E,178,6.281,32.9183
630,2023/4/12,10:29,41-55.15N,141-37.36E,179,6.205,32.9069
631,2023/4/12,10:30,41-54.77N,141-37.36E,180,6.174,32.887
632,2023/4/12,10:31,41-54.42N,141-37.35E,180,6.149,32.8796
633,2023/4/12,10:32,41-54.04N,141-37.35E,179,6.127,32.8722
634,2023/4/12,10:33,41-53.67N,141-37.34E,180,6.092,32.864
635,2023/4/12,10:34,41-53.30N,141-37.34E,179,6.045,32.8479
636,2023/4/12,10:35,41-52.93N,141-37.33E,179,6.008,32.8284
637,2023/4/12,10:36,41-52.56N,141-37.33E,180,5.967,32.8095
638,2023/4/12,10:37,41-52.19N,141-37.32E,180,5.937,32.7969
639,2023/4/12,10:38,41-51.81N,141-37.32E,179,5.888,32.7864
640,2023/4/12,10:39,41-51.43N,141-37.31E,180,5.86,32.7862
641,2023/4/12,10:40,41-51.06N,141-37.30E,180,5.81,32.7883
642,2023/4/12,10:41,41-50.68N,141-37.30E,178,5.753,32.7874
643,2023/4/12,10:42,41-50.32N,141-37.32E,177,5.692,32.7886
644,2023/4/12,10:43,41-49.95N,141-37.33E,177,5.662,32.7872
645,2023/4/12,10:44,41-49.55N,141-37.34E,177,5.657,32.7709
646,2023/4/12,10:45,41-49.15N,141-37.37E,178,5.654,32.7627
647,2023/4/12,10:46,41-48.77N,141-37.39E,177,5.658,32.7564
648,2023/4/12,10:47,41-48.40N,141-37.41E,177,5.647,32.7508
649,2023/4/12,10:48,41-48.02N,141-37.43E,178,5.607,32.7449
650,2023/4/12,10:49,41-47.65N,141-37.45E,177,5.492,32.7444
651,2023/4/12,10:50,41-47.28N,141-37.47E,177,5.421,32.7531
652,2023/4/12,10:51,41-46.92N,141-37.48E,177,5.387,32.7794
653,2023/4/12,10:52,41-46.52N,141-37.51E,176,5.268,32.8204
654,2023/4/12,10:53,41-46.16N,141-37.54E,177,4.995,32.8345
655,2023/4/12,10:54,41-45.85N,141-37.56E,176,4.745,32.8433
656,2023/4/12,10:55,41-45.47N,141-37.59E,176,4.654,32.8189
657,2023/4/12,10:56,41-45.11N,141-37.62E,176,4.726,32.799
658,2023/4/12,10:57,41-44.68N,141-37.65E,176,4.916,32.7907
659,2023/4/12,10:58,41-44.29N,141-37.67E,176,5.602,32.8028
660,2023/4/12,10:59,41-43.91N,141-37.70E,176,6.821,32.876
661,2023/4/12,11:00,41-43.53N,141-37.74E,175,7.52,33.0357
662,2023/4/12,11:01,41-43.18N,141-37.81E,171,8.445,33.1678
663,2023/4/12,11:02,41-42.76N,141-37.88E,173,8.798,33.3513
664,2023/4/12,11:03,41-42.37N,141-37.93E,173,8.803,33.5412
665,2023/4/12,11:04,41-42.00N,141-37.99E,174,8.817,33.6481
666,2023/4/12,11:05,41-41.69N,141-38.02E,174,8.81,33.6896
667,2023/4/12,11:06,41-41.31N,141-38.06E,174,8.824,33.7324
668,2023/4/12,11:07,41-40.93N,141-38.12E,174,8.782,33.7519
669,2023/4/12,11:08,41-40.54N,141-38.17E,174,8.758,33.7632
670,2023/4/12,11:09,41-40.15N,141-38.22E,173,8.654,33.7625
671,2023/4/12,11:10,41-39.77N,141-38.27E,174,8.637,33.7537
672,2023/4/12,11:11,41-39.39N,141-38.31E,175,8.653,33.7388
673,2023/4/12,11:12,41-39.01N,141-38.35E,175,8.694,33.7418
674,2023/4/12,11:13,41-38.62N,141-38.39E,175,8.657,33.7514
675,2023/4/12,11:14,41-38.25N,141-38.43E,176,8.697,33.759
676,2023/4/12,11:15,41-37.86N,141-38.46E,175,8.715,33.765
677,2023/4/12,11:16,41-37.48N,141-38.50E,175,8.577,33.7756
678,2023/4/12,11:17,41-37.11N,141-38.53E,175,8.639,33.7706
679,2023/4/12,11:18,41-36.73N,141-38.57E,175,8.666,33.7822
680,2023/4/12,11:19,41-36.35N,141-38.60E,176,8.638,33.7803
681,2023/4/12,11:20,41-35.97N,141-38.64E,175,8.645,33.7789
682,2023/4/12,11:21,41-35.58N,141-38.67E,176,8.647,33.7849
683,2023/4/12,11:22,41-35.20N,141-38.71E,175,8.646,33.779
684,2023/4/12,11:23,41-34.83N,141-38.74E,175,8.694,33.7795
685,2023/4/12,11:24,41-34.45N,141-38.79E,176,8.625,33.7813
686,2023/4/12,11:25,41-34.08N,141-38.82E,175,8.708,33.7769
687,2023/4/12,11:26,41-33.72N,141-38.86E,175,9.019,33.7841
688,2023/4/12,11:27,41-33.35N,141-38.89E,175,9.094,33.8037
689,2023/4/12,11:28,41-32.97N,141-38.92E,175,9.162,33.8049
690,2023/4/12,11:29,41-32.61N,141-38.95E,177,9.208,33.8086
691,2023/4/12,11:30,41-32.21N,141-38.97E,177,9.247,33.799
692,2023/4/12,11:31,41-31.86N,141-38.98E,178,9.267,33.8015
693,2023/4/12,11:32,41-31.48N,141-39.00E,177,9.281,33.8006
694,2023/4/12,11:33,41-31.10N,141-39.02E,177,9.303,33.802
695,2023/4/12,11:34,41-30.73N,141-39.04E,177,9.319,33.8028
696,2023/4/12,11:35,41-30.33N,141-39.07E,177,9.335,33.8007
697,2023/4/12,11:36,41-29.98N,141-39.08E,177,9.345,33.8031
698,2023/4/12,11:37,41-29.60N,141-39.10E,178,9.349,33.8014
699,2023/4/12,11:38,41-29.21N,141-39.11E,178,9.361,33.7954
700,2023/4/12,11:39,41-28.82N,141-39.13E,178,9.376,33.7936
701,2023/4/12,11:40,41-28.46N,141-39.15E,178,9.399,33.7973
702,2023/4/12,11:41,41-28.08N,141-39.16E,178,9.408,33.7939
703,2023/4/12,11:42,41-27.70N,141-39.17E,178,9.508,33.7903
704,2023/4/12,11:43,41-27.31N,141-39.18E,178,9.543,33.7883
705,2023/4/12,11:44,41-26.95N,141-39.19E,178,9.484,33.7849
706,2023/4/12,11:45,41-26.57N,141-39.20E,179,9.528,33.7799
707,2023/4/12,11:46,41-26.19N,141-39.21E,178,9.542,33.7817
708,2023/4/12,11:47,41-25.82N,141-39.22E,178,9.521,33.7759
709,2023/4/12,11:48,41-25.43N,141-39.23E,178,9.538,33.7747
710,2023/4/12,11:49,41-25.05N,141-39.24E,178,9.553,33.7788
711,2023/4/12,11:50,41-24.66N,141-39.25E,178,9.559,33.7766
712,2023/4/12,11:51,41-24.30N,141-39.25E,179,9.562,33.7759
713,2023/4/12,11:52,41-23.91N,141-39.26E,178,9.555,33.7702
714,2023/4/12,11:53,41-23.53N,141-39.27E,179,9.55,33.7732
715,2023/4/12,11:54,41-23.15N,141-39.28E,179,9.554,33.7761
716,2023/4/12,11:55,41-22.77N,141-39.28E,179,9.524,33.7749
717,2023/4/12,11:56,41-22.38N,141-39.28E,179,9.534,33.7781
718,2023/4/12,11:57,41-22.01N,141-39.28E,179,9.529,33.7751
719,2023/4/12,11:58,41-21.63N,141-39.28E,179,9.524,33.7752
720,2023/4/12,11:59,41-21.26N,141-39.29E,179,9.495,33.7784
721,2023/4/12,12:00,41-20.88N,141-39.30E,179,9.52,33.7808
722,2023/4/12,12:01,41-20.52N,141-39.29E,179,9.527,33.7822
723,2023/4/12,12:02,41-20.15N,141-39.30E,178,9.548,33.7834
724,2023/4/12,12:03,41-19.78N,141-39.31E,179,9.562,33.7834
725,2023/4/12,12:04,41-19.42N,141-39.32E,179,9.527,33.7853
726,2023/4/12,12:05,41-19.06N,141-39.32E,179,9.464,33.7851
727,2023/4/12,12:06,41-18.70N,141-39.33E,178,9.431,33.7873
728,2023/4/12,12:07,41-18.34N,141-39.35E,178,9.369,33.7887
729,2023/4/12,12:08,41-17.96N,141-39.36E,178,9.396,33.7852
730,2023/4/12,12:09,41-17.61N,141-39.37E,178,9.434,33.7831
731,2023/4/12,12:10,41-17.24N,141-39.38E,178,9.434,33.7833
732,2023/4/12,12:11,41-16.86N,141-39.39E,178,9.433,33.7821
733,2023/4/12,12:12,41-16.50N,141-39.40E,178,9.44,33.7779
734,2023/4/12,12:13,41-16.13N,141-39.41E,178,9.457,33.7806
735,2023/4/12,12:14,41-15.76N,141-39.42E,178,9.473,33.7853
736,2023/4/12,12:15,41-15.42N,141-39.43E,178,9.491,33.7878
737,2023/4/12,12:16,41-15.05N,141-39.44E,178,9.515,33.7882
738,2023/4/12,12:17,41-14.69N,141-39.45E,178,9.54,33.7893
739,2023/4/12,12:18,41-14.32N,141-39.46E,178,9.564,33.7811
740,2023/4/12,12:19,41-13.98N,141-39.47E,179,9.575,33.7901
741,2023/4/12,12:20,41-13.61N,141-39.49E,175,9.594,33.7903
742,2023/4/12,12:21,41-13.26N,141-39.58E,166,9.595,33.7921
743,2023/4/12,12:22,41-12.92N,141-39.71E,163,9.56,33.7922
744,2023/4/12,12:23,41-12.57N,141-39.85E,162,9.52,33.7893
745,2023/4/12,12:24,41-12.22N,141-39.99E,162,9.488,33.7896
746,2023/4/12,12:25,41-11.87N,141-40.14E,162,9.436,33.7884
747,2023/4/12,12:26,41-11.52N,141-40.29E,162,9.402,33.7871
748,2023/4/12,12:27,41-11.17N,141-40.43E,162,9.341,33.7844
749,2023/4/12,12:28,41-10.81N,141-40.58E,162,9.293,33.7846
750,2023/4/12,12:29,41-10.47N,141-40.72E,162,9.251,33.7805
751,2023/4/12,12:30,41-10.11N,141-40.87E,163,9.196,33.7758
752,2023/4/12,12:31,41-09.74N,141-41.01E,163,9.157,33.7638
753,2023/4/12,12:32,41-09.41N,141-41.14E,163,9.136,33.7591
754,2023/4/12,12:33,41-09.05N,141-41.28E,163,9.113,33.7549
755,2023/4/12,12:34,41-08.71N,141-41.42E,163,9.099,33.752
756,2023/4/12,12:35,41-08.35N,141-41.56E,163,9.113,33.748
757,2023/4/12,12:36,41-07.99N,141-41.70E,163,9.136,33.7492
758,2023/4/12,12:37,41-07.64N,141-41.83E,164,9.149,33.7539
759,2023/4/12,12:38,41-07.28N,141-41.96E,164,9.209,33.7536
760,2023/4/12,12:39,41-06.92N,141-42.10E,164,9.261,33.7624
761,2023/4/12,12:40,41-06.59N,141-42.23E,164,9.268,33.7625
762,2023/4/12,12:41,41-06.23N,141-42.36E,164,9.31,33.7657
763,2023/4/12,12:42,41-05.87N,141-42.49E,164,9.379,33.7662
764,2023/4/12,12:43,41-05.53N,141-42.62E,164,9.419,33.7715
765,2023/4/12,12:44,41-05.18N,141-42.74E,165,9.473,33.7709
766,2023/4/12,12:45,41-04.83N,141-42.87E,164,9.521,33.7733
767,2023/4/12,12:46,41-04.47N,141-43.00E,164,9.544,33.7729
768,2023/4/12,12:47,41-04.13N,141-43.12E,164,9.559,33.7735
769,2023/4/12,12:48,41-03.76N,141-43.25E,165,9.549,33.7737
770,2023/4/12,12:49,41-03.42N,141-43.37E,165,9.546,33.7736
771,2023/4/12,12:50,41-03.07N,141-43.49E,164,9.569,33.7746
772,2023/4/12,12:51,41-02.71N,141-43.62E,165,9.603,33.7746
773,2023/4/12,12:52,41-02.35N,141-43.75E,165,9.617,33.7719
774,2023/4/12,12:53,41-02.00N,141-43.86E,165,9.624,33.7738
775,2023/4/12,12:54,41-01.65N,141-43.99E,165,9.615,33.7697
776,2023/4/12,12:55,41-01.30N,141-44.10E,165,9.604,33.7697
777,2023/4/12,12:56,41-00.94N,141-44.23E,165,9.601,33.7704
778,2023/4/12,12:57,41-00.58N,141-44.35E,165,9.578,33.7717
779,2023/4/12,12:58,41-00.22N,141-44.47E,165,9.563,33.7718
780,2023/4/12,12:59,40-59.85N,141-44.59E,166,9.552,33.771
781,2023/4/12,13:00,40-59.51N,141-44.70E,166,9.548,33.7772
782,2023/4/12,13:01,40-59.14N,141-44.82E,166,9.553,33.7739
783,2023/4/12,13:02,40-58.78N,141-44.94E,166,9.548,33.774
784,2023/4/12,13:03,40-58.42N,141-45.05E,166,9.534,33.7713
785,2023/4/12,13:04,40-58.07N,141-45.17E,166,9.526,33.7735
786,2023/4/12,13:05,40-57.71N,141-45.28E,166,9.509,33.7744
787,2023/4/12,13:06,40-57.35N,141-45.40E,166,9.491,33.7754
788,2023/4/12,13:07,40-56.99N,141-45.50E,166,9.48,33.7781
789,2023/4/12,13:08,40-56.62N,141-45.62E,166,9.45,33.7774
790,2023/4/12,13:09,40-56.28N,141-45.72E,166,9.402,33.7784
791,2023/4/12,13:10,40-55.91N,141-45.84E,166,9.391,33.7762
792,2023/4/12,13:11,40-55.56N,141-45.96E,164,9.151,33.7798
793,2023/4/12,13:12,40-55.22N,141-46.08E,165,8.554,33.7762
794,2023/4/12,13:13,40-54.86N,141-46.20E,165,8.162,33.6794
795,2023/4/12,13:14,40-54.50N,141-46.32E,165,7.541,33.5719
796,2023/4/12,13:15,40-54.16N,141-46.44E,165,7.397,33.4757
797,2023/4/12,13:16,40-53.80N,141-46.57E,164,7.349,33.3769
798,2023/4/12,13:17,40-53.45N,141-46.70E,164,7.333,33.3287
799,2023/4/12,13:18,40-53.08N,141-46.83E,164,7.355,33.2944
800,2023/4/12,13:19,40-52.74N,141-46.95E,164,7.386,33.2841
801,2023/4/12,13:20,40-52.37N,141-47.08E,165,7.271,33.282
802,2023/4/12,13:21,40-52.01N,141-47.20E,165,7.058,33.2708
803,2023/4/12,13:22,40-51.66N,141-47.32E,164,6.885,33.236
804,2023/4/12,13:23,40-51.29N,141-47.46E,163,6.825,33.2024
805,2023/4/12,13:24,40-50.95N,141-47.60E,163,6.923,33.173
806,2023/4/12,13:25,40-50.59N,141-47.75E,162,6.945,33.1636
807,2023/4/12,13:26,40-50.22N,141-47.90E,162,6.928,33.1636
808,2023/4/12,13:27,40-49.87N,141-48.04E,163,6.901,33.1531
809,2023/4/12,13:28,40-49.53N,141-48.18E,162,6.865,33.1437
810,2023/4/12,13:29,40-49.16N,141-48.33E,162,6.826,33.1332
811,2023/4/12,13:30,40-48.81N,141-48.47E,162,6.819,33.125
812,2023/4/12,13:31,40-48.45N,141-48.62E,162,6.738,33.1159
813,2023/4/12,13:32,40-48.10N,141-48.76E,162,6.684,33.1126
814,2023/4/12,13:33,40-47.75N,141-48.91E,161,6.695,33.1135
815,2023/4/12,13:34,40-47.39N,141-49.06E,162,6.72,33.1123
816,2023/4/12,13:35,40-47.03N,141-49.21E,162,6.675,33.1241
817,2023/4/12,13:36,40-46.67N,141-49.36E,162,6.662,33.1199
818,2023/4/12,13:37,40-46.32N,141-49.50E,162,6.728,33.1176
819,2023/4/12,13:38,40-45.96N,141-49.65E,162,6.828,33.1224
820,2023/4/12,13:39,40-45.61N,141-49.80E,163,6.906,33.1439
821,2023/4/12,13:40,40-45.25N,141-49.92E,165,6.988,33.1706
822,2023/4/12,13:41,40-44.88N,141-50.04E,165,6.987,33.1932
823,2023/4/12,13:42,40-44.52N,141-50.16E,167,7.069,33.1955
824,2023/4/12,13:43,40-44.16N,141-50.26E,168,7.112,33.2081
825,2023/4/12,13:44,40-43.79N,141-50.37E,167,7.248,33.219
826,2023/4/12,13:45,40-43.43N,141-50.45E,170,7.328,33.2528
827,2023/4/12,13:46,40-43.05N,141-50.53E,172,7.325,33.2868
828,2023/4/12,13:47,40-42.67N,141-50.59E,172,7.326,33.3027
829,2023/4/12,13:48,40-42.31N,141-50.65E,173,7.873,33.3092
830,2023/4/12,13:49,40-41.93N,141-50.70E,172,7.853,33.3898
831,2023/4/12,13:50,40-41.56N,141-50.76E,173,8.534,33.4213
832,2023/4/12,13:51,40-41.17N,141-50.82E,173,8.755,33.5285
833,2023/4/12,13:52,40-40.81N,141-50.88E,173,8.924,33.5898
834,2023/4/12,13:53,40-40.43N,141-50.94E,173,9.058,33.6368
835,2023/4/12,13:54,40-40.04N,141-51.00E,173,9.196,33.6759
836,2023/4/12,13:55,40-39.66N,141-51.05E,173,9.274,33.7031
837,2023/4/12,13:56,40-39.30N,141-51.11E,173,9.349,33.7152
838,2023/4/12,13:57,40-38.91N,141-51.16E,173,9.405,33.723
839,2023/4/12,13:58,40-38.55N,141-51.22E,173,9.434,33.7274
840,2023/4/12,13:59,40-38.17N,141-51.27E,173,9.453,33.7288
841,2023/4/12,14:00,40-37.79N,141-51.33E,173,9.463,33.7298
842,2023/4/12,14:01,40-37.43N,141-51.38E,173,9.482,33.7327
843,2023/4/12,14:02,40-37.06N,141-51.44E,173,9.501,33.7318
844,2023/4/12,14:03,40-36.68N,141-51.49E,173,9.522,33.7323
845,2023/4/12,14:04,40-36.30N,141-51.54E,173,9.537,33.7318
846,2023/4/12,14:05,40-35.93N,141-51.59E,173,9.555,33.7312
847,2023/4/12,14:06,40-35.55N,141-51.65E,173,9.58,33.7316
848,2023/4/12,14:07,40-35.18N,141-51.70E,173,9.596,33.7311
849,2023/4/12,14:08,40-34.80N,141-51.75E,173,9.609,33.7309
850,2023/4/12,14:09,40-34.42N,141-51.81E,174,9.623,33.7306
851,2023/4/12,14:10,40-34.03N,141-51.86E,173,9.632,33.7318
852,2023/4/12,14:11,40-33.66N,141-51.91E,174,9.633,33.7316
853,2023/4/12,14:12,40-33.29N,141-51.96E,174,9.626,33.7332
854,2023/4/12,14:13,40-32.91N,141-52.02E,173,9.633,33.7345
855,2023/4/12,14:14,40-32.53N,141-52.07E,173,9.658,33.7337
856,2023/4/12,14:15,40-32.14N,141-52.13E,173,9.664,33.7325
857,2023/4/12,14:16,40-31.78N,141-52.18E,173,9.674,33.733
858,2023/4/12,14:17,40-31.41N,141-52.24E,173,9.702,33.7346
859,2023/4/12,14:18,40-31.03N,141-52.29E,173,9.716,33.7349
860,2023/4/12,14:19,40-30.64N,141-52.35E,173,9.723,33.7332
861,2023/4/12,14:20,40-30.26N,141-52.41E,173,9.75,33.7215
862,2023/4/12,14:21,40-29.88N,141-52.50E,169,9.782,33.7072
863,2023/4/12,14:22,40-29.53N,141-52.60E,167,9.814,33.6935
864,2023/4/12,14:23,40-29.15N,141-52.71E,167,9.829,33.6841
865,2023/4/12,14:24,40-28.77N,141-52.81E,167,9.823,33.6766
866,2023/4/12,14:25,40-28.40N,141-52.92E,167,9.841,33.6716
867,2023/4/12,14:26,40-28.02N,141-53.03E,167,9.761,33.6712
868,2023/4/12,14:27,40-27.65N,141-53.14E,167,9.753,33.6695
869,2023/4/12,14:28,40-27.28N,141-53.24E,167,9.76,33.6736
870,2023/4/12,14:29,40-26.89N,141-53.36E,167,9.785,33.673
871,2023/4/12,14:30,40-26.52N,141-53.46E,167,9.797,33.6764
872,2023/4/12,14:31,40-26.14N,141-53.57E,167,9.801,33.6764
873,2023/4/12,14:32,40-25.76N,141-53.68E,167,9.81,33.6792
874,2023/4/12,14:33,40-25.40N,141-53.79E,167,9.824,33.6808
875,2023/4/12,14:34,40-25.01N,141-53.90E,167,9.826,33.6816
876,2023/4/12,14:35,40-24.64N,141-54.00E,167,9.83,33.6835
877,2023/4/12,14:36,40-24.24N,141-54.12E,167,9.84,33.6829
878,2023/4/12,14:37,40-23.89N,141-54.22E,167,9.847,33.6867
879,2023/4/12,14:38,40-23.51N,141-54.33E,167,9.852,33.6874
880,2023/4/12,14:39,40-23.13N,141-54.43E,167,9.847,33.6919
881,2023/4/12,14:40,40-22.74N,141-54.54E,167,9.829,33.6954
882,2023/4/12,14:41,40-22.37N,141-54.65E,167,9.814,33.6998
883,2023/4/12,14:42,40-22.01N,141-54.75E,167,9.812,33.7005
884,2023/4/12,14:43,40-21.63N,141-54.86E,167,9.806,33.7008
885,2023/4/12,14:44,40-21.25N,141-54.96E,168,9.8,33.6982
886,2023/4/12,14:45,40-20.89N,141-55.06E,168,9.793,33.6977
887,2023/4/12,14:46,40-20.51N,141-55.17E,168,9.788,33.6962
888,2023/4/12,14:47,40-20.12N,141-55.28E,168,9.779,33.6965
889,2023/4/12,14:48,40-19.76N,141-55.37E,168,9.78,33.6972
890,2023/4/12,14:49,40-19.38N,141-55.48E,168,9.783,33.7008
891,2023/4/12,14:50,40-19.01N,141-55.57E,168,9.795,33.7003
892,2023/4/12,14:51,40-18.64N,141-55.67E,168,9.793,33.6996
893,2023/4/12,14:52,40-18.26N,141-55.78E,168,9.8,33.6967
894,2023/4/12,14:53,40-17.89N,141-55.88E,168,9.797,33.6989
895,2023/4/12,14:54,40-17.51N,141-55.98E,168,9.807,33.6996
896,2023/4/12,14:55,40-17.14N,141-56.08E,168,9.821,33.7002
897,2023/4/12,14:56,40-16.77N,141-56.18E,167,9.844,33.7005
898,2023/4/12,14:57,40-16.39N,141-56.30E,167,9.865,33.7027
899,2023/4/12,14:58,40-16.03N,141-56.40E,167,9.893,33.7034
900,2023/4/12,14:59,40-15.65N,141-56.51E,167,9.877,33.7058
901,2023/4/12,15:00,40-15.27N,141-56.62E,167,9.842,33.7049
902,2023/4/12,15:01,40-14.91N,141-56.73E,166,9.866,33.7043
903,2023/4/12,15:02,40-14.53N,141-56.85E,166,9.855,33.7048
904,2023/4/12,15:03,40-14.17N,141-56.96E,166,9.844,33.703
905,2023/4/12,15:04,40-13.77N,141-57.09E,166,9.835,33.7001
906,2023/4/12,15:05,40-13.43N,141-57.20E,166,9.841,33.6968
907,2023/4/12,15:06,40-13.06N,141-57.32E,166,9.844,33.6934
908,2023/4/12,15:07,40-12.68N,141-57.43E,166,9.844,33.6875
909,2023/4/12,15:08,40-12.30N,141-57.55E,166,9.854,33.6844
910,2023/4/12,15:09,40-11.94N,141-57.67E,166,9.877,33.6796
911,2023/4/12,15:10,40-11.57N,141-57.78E,166,9.896,33.6711
912,2023/4/12,15:11,40-11.21N,141-57.89E,166,9.924,33.6604